Regional Weather Roundup
Issued by NWS Goodland, KS

Home | Current Version | Previous Version | Text Only | Print | Product List | Glossary On
Versions: 1 2 3 4 5 6 7 8 9 10 11 12 13 14 15 16 17 18 19 20 21 22 23 24 25 26 27 28 29 30 31 32 33 34 35 36 37 38 39 40 41 42 43 44 45 46 47 48 49 50
000
ASUS43 KGLD 202108
RWRGLD

GOODLAND FORECAST AREA HOURLY WEATHER ROUNDUP
NATIONAL WEATHER SERVICE GOODLAND KS
200 PM MST THU NOV 20 2014

...OFFICIAL OBSERVATIONS...

CITY           SKY/WX    TMP DP  RH WIND       PRES   REMARKS
GOODLAND KS    SUNNY     54  17  23 E6        29.99F
HILL CITY KS   SUNNY     51  26  37 NE9       30.03F
IMPERIAL NEB   SUNNY     50  18  28 CALM      29.99S
MCCOOK NEB     SUNNY     44  22  41 SE7       30.02F
AKRON CO       SUNNY     55  12  18 S12       29.95F
BURLINGTON CO  SUNNY     53  13  20 SE9       29.97F
LIMON CO       MOSUNNY   52  11  19 S14       29.97F
$$

...UNOFFICIAL OBSERVATIONS...

CITY           SKY/WX    TMP DP  RH WIND       PRES   REMARKS
GOVE KS          N/A     54  32  43 MISG        N/A
NORTON KS      SUNNY     43  18  36 E6        30.03S
SHARON SPRINGS   N/A     54  25  32 S7          N/A
TRIBUNE KS     MOSUNNY   57  34  41 SE6       30.00S
TRENTON NEB      N/A     45  32  60 E6          N/A
YUMA CO          N/A     55  15  20 SE12        N/A
$$


USA.gov is the U.S. government's official web portal to all federal, state and local government web resources and services.